Location: Fort Worth, Tx
(32.7431°N, 97.3695°W)
Time: 15:53:47
(UTC-04:00)

O/OREOS (USA 219) - Pass Details

Date: 27 March 2023
Orbit: 621 x 646 km, 72.0° (Epoch: 22 May)

Event Time Altitude Azimuth Distance (km) Brightness Sun altitude
Rises 07:43:02 0° 201° (SSW) 2,940 ? -9.4°
Reaches altitude 10° 07:45:18 10° 203° (SSW) 2,033 ? -9.0°
Maximum altitude 07:49:52 77° 290° (WNW) 662 ? -8.0°
Drops below altitude 10° 07:54:27 10° 16° (NNE) 2,036 ? -7.1°
Sets 07:56:44 0° 18° (NNE) 2,945 ? -6.6°
